To NAV CANADA Home Page Login to a new session Search on AWWS site Feedback and Comments Disclaimer Vers la page française équivalente Tips FAQ What's new on the site To the Forecasts and Observations / NOTAM section To "File a Flight Plan" website Publications and other links Update of the User's profile FIC Telephone Numbers My Weather Data Folder Route Weather Data Regional Weather Data Local Weather Data To the Forecasts and Observations / NOTAM section
Request Generated 12/10/2016 at 16:33:22 UTC . Weather information available at that time is displayed.

METAR/TAF

WHALE COVE/NU    

METAR CYXN 101600Z 24018KT 15SM FEW016 M26/M30 A2995 RMK SC1 SC TR
-24.7/-28.1/0/0 SLP145=
LWIS CYXN 101500Z AUTO 24020KT M26/M29 A2997=
LWIS CYXN 101400Z AUTO 24020G26KT M26/M29 A2998=

CYXN - No TAF is issued for this station

Your time UTC time
Weather data provided by Environment Canada and NAV CANADA